TimePST,TemperatureF,Dew PointF,Humidity,Sea Level PressureIn,VisibilityMPH,Wind Direction,Wind SpeedMPH,Gust SpeedMPH,PrecipitationIn,Events,Conditions,WindDirDegrees,DateUTC
12:53 AM,28.9,12.0,49,29.95,10.0,South,8.1,-,N/A,,Clear,180,2013-01-23 08:53:00
1:53 AM,30.0,10.9,45,29.94,10.0,South,9.2,-,N/A,,Clear,170,2013-01-23 09:53:00
2:53 AM,28.0,12.9,53,29.96,10.0,South,5.8,-,N/A,,Clear,170,2013-01-23 10:53:00
3:53 AM,30.0,10.9,45,29.93,10.0,South,10.4,-,N/A,,Clear,170,2013-01-23 11:53:00
4:53 AM,28.9,12.0,49,29.92,10.0,South,6.9,-,N/A,,Clear,180,2013-01-23 12:53:00
5:53 AM,30.0,12.9,49,29.91,10.0,South,9.2,-,N/A,,Clear,180,2013-01-23 13:53:00
6:53 AM,30.9,12.0,46,29.88,10.0,South,11.5,19.6,N/A,,Clear,170,2013-01-23 14:53:00
7:53 AM,32.0,12.0,44,29.89,10.0,South,12.7,23.0,N/A,,Clear,180,2013-01-23 15:53:00
8:53 AM,33.1,12.0,42,29.88,10.0,South,10.4,19.6,N/A,,Clear,170,2013-01-23 16:53:00
9:53 AM,35.1,12.0,39,29.88,10.0,South,9.2,19.6,N/A,,Clear,170,2013-01-23 17:53:00
10:53 AM,37.0,12.0,36,29.86,10.0,Variable,4.6,-,N/A,,Clear,0,2013-01-23 18:53:00
11:53 AM,37.0,16.0,42,29.85,10.0,South,8.1,-,N/A,,Clear,190,2013-01-23 19:53:00
12:53 PM,37.9,16.0,41,29.82,10.0,Variable,6.9,-,N/A,,Clear,0,2013-01-23 20:53:00
1:53 PM,37.0,14.0,39,29.81,10.0,South,9.2,16.1,N/A,,Clear,190,2013-01-23 21:53:00
2:53 PM,36.0,12.9,39,29.81,10.0,South,10.4,18.4,N/A,,Mostly Cloudy,190,2013-01-23 22:53:00
3:53 PM,35.1,15.1,44,29.80,10.0,SW,8.1,16.1,N/A,,Overcast,230,2013-01-23 23:53:00
4:27 PM,33.8,21.2,60,29.88,8.0,Variable,5.8,17.3,0.00,Snow,Light Snow,0,2013-01-24 00:27:00
4:53 PM,30.0,23.0,75,29.83,2.0,SSW,9.2,16.1,0.00,Snow,Light Snow,210,2013-01-24 00:53:00
4:56 PM,28.4,24.8,86,29.90,1.2,Variable,6.9,-,0.00,Snow,Light Snow,0,2013-01-24 00:56:00
5:01 PM,28.4,24.8,86,29.90,0.8,Variable,6.9,-,0.00,Snow,Light Snow,0,2013-01-24 01:01:00
5:13 PM,26.6,26.6,100,29.89,0.2,Variable,5.8,20.7,0.00,Fog-Snow,Snow,0,2013-01-24 01:13:00
5:26 PM,26.6,26.6,100,29.88,0.2,Variable,6.9,-,0.00,Fog-Snow,Snow,0,2013-01-24 01:26:00
5:53 PM,28.0,27.0,96,29.95,0.2,South,8.1,-,0.00,Fog-Snow,Snow,170,2013-01-24 01:53:00
6:10 PM,28.4,28.4,100,29.87,0.5,South,8.1,-,0.00,Fog-Snow,Snow,170,2013-01-24 02:10:00
7:15 PM,28.4,28.4,100,29.87,0.2,South,9.2,-,0.00,Fog-Snow,Snow,180,2013-01-24 03:15:00
7:24 PM,28.4,28.4,100,29.86,0.5,South,9.2,-,0.00,Fog-Snow,Snow,180,2013-01-24 03:24:00
7:53 PM,28.9,28.9,100,29.79,0.2,Variable,6.9,-,0.00,Fog-Snow,Snow,0,2013-01-24 03:53:00
8:53 PM,28.9,28.9,100,29.80,0.2,Variable,6.9,20.7,0.00,Fog-Snow,Snow,0,2013-01-24 04:53:00
9:32 PM,28.4,28.4,100,29.86,0.5,South,8.1,-,0.00,Fog-Snow,Snow,190,2013-01-24 05:32:00
9:53 PM,28.9,28.9,100,29.78,0.5,SSW,11.5,26.5,0.00,Fog-Snow,Snow,200,2013-01-24 05:53:00
10:22 PM,28.4,28.4,100,29.87,0.2,SSW,9.2,20.7,0.00,Fog-Snow,Snow,200,2013-01-24 06:22:00
10:45 PM,28.4,28.4,100,29.87,0.5,SSW,8.1,21.9,0.00,Fog-Snow,Snow,210,2013-01-24 06:45:00
10:53 PM,28.9,28.0,96,29.78,0.5,SSW,11.5,21.9,0.00,Fog-Snow,Snow,200,2013-01-24 06:53:00
11:18 PM,28.4,26.6,93,29.87,1.5,SSW,11.5,23.0,0.00,Snow,Light Snow,210,2013-01-24 07:18:00
11:35 PM,26.6,26.6,100,29.87,1.2,SSW,11.5,29.9,0.00,Snow,Light Snow,210,2013-01-24 07:35:00
11:39 PM,26.6,26.6,100,29.87,2.0,SSW,16.1,28.8,0.00,Snow,Light Snow,210,2013-01-24 07:39:00
11:45 PM,26.6,26.6,100,29.87,3.0,SSW,8.1,28.8,0.00,Snow,Light Snow,210,2013-01-24 07:45:00
11:53 PM,27.0,27.0,100,29.78,1.5,SSW,9.2,27.6,0.00,Snow,Light Snow,210,2013-01-24 07:53:00
11:58 PM,26.6,26.6,100,29.87,0.8,SSW,11.5,28.8,0.00,Snow,Light Snow,200,2013-01-24 07:58:00